www.pogodaiklimat.ru

Погода и климат >> Архив погоды >> Пакистан >> Сиалкот аэропорт


ПОГОДА в Сиалкот аэропорту

  • Прогноз погоды в Сиалкот аэропорту
  • Монитор погоды в Сиалкот аэропорту

АРХИВ ПОГОДЫ в Сиалкот аэропорту

Время (UTC), дата Ветер
(напр.,м/с)
 
Видим.   Явления Облачность Т
(С)
Тd
(С)
f
(%)
Тe
(С)
Тes
(С)
Комфортность P
(гПа)
Po
(гПа)
Тmin
(С)
Tmax
(С)
R
(мм)
R24
(мм)
S
(см)
21 13.07 СВ 4 4000 м дым 9/4 1000 м
[Sc diur, vesp Ac As]
+27.5 +23.9 81 +38 +38 очень
душно
998.4 970.6
00 14.07 Ю 2 4000 м в посл. час гроза {дождь} 9/4 1000 м
[Sc diur, vesp Ac As]
+27.0 +24.1 84 +37 +37 очень
душно
997.0 968.0 5
03 14.07 ЮЗ 4 4000 м дым 10/5 1000 м
[Sc diur, vesp As op]
+26.0 +24.6 92 +37 +37 очень
душно
998.4 969.4 +23.8
06 14.07 В 2 4000 м дым 6/3 1000 м
[Sc diur, vesp Ac As]
+30.0 +23.5 68 +41 +50 опасность
перегрева
998.4 969.4
09 14.07 Ю 6 4000 м дым 9/5 1000 м
[Sc diur, vesp Ac As]
+30.0 +24.3 72 +42 +44 опасность
перегрева
998.0 970.5
12 14.07 ЮВ 4 4000 м дым 8/4 1000 м
[Sc diur, vesp Ac As]
+30.0 +22.8 65 +40 +40 очень
душно
998.1 969.1 +31.2
18 14.07 ЮВ 2 4000 м дым 4/4 1000 м
[Sc diur, vesp]
+27.0 +22.6 77 +36 +36 очень
душно
998.8 969.8
21 14.07 СВ 3 4000 м дым {дождь} 9/4 1000 м
[Sc diur, vesp Ac As]
+26.5 +22.9 81 +35 +35 очень
душно
997.2 969.4 0.0
00 15.07 З 2 4000 м зарница 9/5 600 м
[Cb cap Ac As]
+26.0 +23.0 84 +35 +35 очень
душно
997.3 968.3
03 15.07 штиль 0 4000 м слаб. дождь 10/5 1000 м
[Sc diur, vesp As op]
+26.0 +23.8 88 +36 +37 очень
душно
997.4 968.4 +24.5 0.0
06 15.07 ЮВ 3 4000 м дым {дождь} 9/4 1000 м
[Sc diur, vesp Ac As]
+29.5 +23.0 68 +39 +43 очень
душно
998.0 969.0 0.0
09 15.07 ЮВ 3 4000 м дым 4/4 1000 м
[Sc diur, vesp]
+32.5 +22.4 55 +42 +50 опасность
перегрева
997.4 970.1
12 15.07 ЮВ 3 4000 м дым 6/6 1000 м
[Sc diur, vesp]
+32.5 +23.2 58 +43 +44 опасность
перегрева
996.8 967.9 +33.2
15 15.07 ЮВ 3 4000 м дым 8/4 1000 м
[Sc Ac trans]
+31.0 +24.6 69 +44 +44 опасность
перегрева
997.7 970.3
18 15.07 ЮВ 3 4000 м дым 9/4 1000 м
[Sc diur, vesp Ac As]
+30.0 +24.3 72 +42 +42 опасность
перегрева
999.5 970.5
21 15.07 ЮВ 3 4000 м дым 9/4 1000 м
[Sc diur, vesp Ac As]
+28.0 +23.7 77 +38 +38 очень
душно
998.1 970.4
00 16.07 ЮВ 2 4000 м дым 8/4 1000 м
[Sc diur, vesp Ac trans]
+26.0 +22.3 80 +34 +34 очень
душно
997.7 968.7
03 16.07 ЮВ 3 4000 м дым 9/4 1000 м
[Sc diur, vesp Ac As]
+28.0 +22.1 70 +36 +38 очень
душно
1000.3 971.3 +24.6
06 16.07 ЮВ 5 4000 м дым 9/4 1000 м
[Sc diur, vesp Ac As]
+29.0 +24.0 74 +40 +43 очень
душно
1001.9 972.9
09 16.07 ЮВ 4 4000 м дым 9/4 1000 м
[Sc diur, vesp Ac As]
+31.0 +25.4 72 +45 +48 опасность
перегрева
1001.8 974.3
12 16.07 ЮВ 2 4000 м дым 9/4 1000 м
[Sc diur, vesp Ac As]
+29.0 +24.0 74 +40 +41 очень
душно
1001.5 972.5 +32.0
15 16.07 ЮВ 4 4000 м дым 9/4 1000 м
[Sc diur, vesp Ac As]
+27.0 +22.6 77 +36 +36 очень
душно
1002.4 974.5
18 16.07 штиль 0 4000 м дым 9/4 1000 м
[Sc diur, vesp Ac As]
+26.0 +22.3 80 +34 +34 очень
душно
1003.3 974.3
00 17.07 штиль 0 4000 м дым 6/3 1000 м
[Sc diur, vesp Ac trans]
+25.0 +22.0 83 +32 +32 очень
душно
1002.4 973.4
06 17.07 ЮВ 3 4000 м дым 8/4 1000 м
[Sc diur, vesp Ac As]
+30.0 +22.8 65 +40 +45 очень
душно
1003.8 974.8
09 17.07 ЮВ 2 4000 м дым 4/4 1000 м
[Sc diur, vesp]
+32.5 +21.5 52 +40 +51 опасность
солнечного
удара
1002.5 975.1
12 17.07 ЮВ 3 4000 м дым 4/4 1000 м
[Sc diur, vesp]
+33.0 +21.3 50 +41 +42 опасность
перегрева
1000.8 971.8 +34.4
15 17.07 ЮВ 2 4000 м дым ясно +30.0 +21.1 59 +38 +38 очень
душно
1000.9 973.3
18 17.07 ЮВ 2 4000 м дым ясно +29.5 +23.8 71 +40 +40 очень
душно
1001.8 972.8
21 17.07 штиль 0 4000 м дым 4/0
[Ac trans]
+28.5 +24.2 78 +40 +40 очень
душно
1002.1 974.3
00 18.07 штиль 0 2000 м дым 4/0
[Ac As]
+27.5 +24.7 85 +39 +39 очень
душно
1002.1 973.1
03 18.07 ЮЗ 2 2000 м дым 8/4 1000 м
[Sc diur, vesp Ac As]
+30.0 +24.3 72 +42 +44 опасность
перегрева
1003.0 974.0 +26.1
06 18.07 ЮЗ 2 4000 м дым 9/4 1000 м
[Sc diur, vesp Ac As]
+33.0 +23.8 59 +45 +50 опасность
перегрева
1003.9 974.9
09 18.07 ЮЗ 2 4000 м дым 9/4 1000 м
[Sc diur, vesp Ac As]
+33.5 +23.5 56 +44 +49 опасность
перегрева
1001.9 974.6
12 18.07 СВ 6 2000 м гроза без осадков 9/5 600 м
[Cb cap Ac As]
+32.0 +23.4 60 +43 +43 опасность
перегрева
1000.7 971.7 +34.5
15 18.07 СВ 2 4000 м в посл. час дождь {гроза} 9/4 1000 м
[Sc diur, vesp Ac As]
+27.0 +24.1 84 +37 +37 очень
душно
1001.6 973.7 1
18 18.07 СВ 2 4000 м дым {гроза, дождь} 3/3 1000 м
[Sc diur, vesp]
+28.0 +24.4 81 +39 +39 очень
душно
1002.2 973.2
21 18.07 штиль 0 4000 м дым 8/4 1000 м
[Sc diur, vesp Ac As]
+28.0 +24.4 81 +39 +39 очень
душно
1002.5 974.7
00 19.07 штиль 0 4000 м дым 6/3 1000 м
[Sc diur, vesp Ac As]
+28.0 +24.4 81 +39 +39 очень
душно
1002.2
03 19.07 СВ 2 4000 м дым 6/3 1000 м
[Sc diur, vesp Ac As]
+30.0 +24.3 72 +42 +46 опасность
перегрева
1003.3 974.3 +25.1
06 19.07 СЗ 2 2000 м слаб. дождь 9/5 1000 м
[Sc diur, vesp Ac As]
+31.0 +25.4 72 +45 +49 опасность
перегрева
1003.7 974.7 0.0
12 19.07 штиль 0 4000 м дым {гроза, дождь} 9/4 1000 м
[Sc diur, vesp Ac As]
+27.0 +23.4 81 +37 +38 очень
душно
1002.6 973.6 +32.4 0.0
15 19.07 штиль 0 4000 м дым 6/3 1000 м
[Sc Ac trans]
+28.0 +23 +23 комфорт 1002.7 974.9
18 19.07 штиль 0 4000 м дым 3/3 1000 м
[Sc]
+27.5 +24.7 85 +39 +39 очень
душно
1003.1 974.1
21 19.07 штиль 0 4000 м дым 3/0
[Ac trans]
+26.5 +23.6 84 +36 +36 очень
душно
1003.7 975.7
00 20.07 штиль 0 4000 м дым 4/3 1000 м
[Sc Ac trans]
+26.5 +23.6 84 +36 +36 очень
душно
1003.8 974.8
03 20.07 штиль 0 н/о +29.5 +24.5 75 +42 +52 опасность
перегрева
1005.0 975.9 +22.3
06 20.07 штиль 0 4000 м дым 1/1 1000 м
[Cu hum]
+33.0 +25.3 64 +47 +71 опасность
перегрева
1004.8 975.7
09 20.07 ЮЗ 2 4000 м дым 4/4 1000 м
[Cu hum]
+34.5 +23.9 54 +46 +56 опасность
перегрева
1003.7 976.4
12 20.07 СЗ 2 4000 м дым 3/3 1000 м
[Sc diur, vesp]
+35.0 +25.3 57 +49 +51 опасность
перегрева
1001.6 972.6 +35.3

 

Местоположение метеостанции Сиалкот аэропорт (Пакистан): широта 32.53 долгота 74.03 высота над уровнем моря 248 м.

В архиве по умолчанию представлена погода в Сиалкот аэропорту за последнюю неделю. Архивные данные за месяц целиком и за предыдущие месяцы, начиная с января 2011 года, Вы можете получить, выбрав интересующий диапазон дат из раскрывающегося списка и нажав кнопку "Ввод!".


*Определитесь, кто Вы:
робот инопланетянин человек

Внимание! Время в таблицах - всемирное. Для получения местного времени необходимо прибавить поправку, которая равна 5 ч.

Смотрите также архив погоды в соседних городах и на ближайших метеорологических станциях:

Погода в Гуджрате (Пакистан) (7 км)
Погода в Гуджранвале (Пакистан) (42 км)
Погода в Сиялкоте (Пакистан) (47 км)
Погода в Джеламе (Пакистан) (53 км)
Погода в Хафизабаде (Пакистан) (61 км)
Погода в Мангле (Пакистан) (71 км)
Погода в Джамму (Джамму и Кашмир, Индия) (77 км)
Погода в Наровале (Пакистан) (91 км)
Погода в Катре (Джамму и Кашмир, Индия) (99 км)
Погода в Лахоре (Пакистан) (113 км)

Пояснения к столбцам:

Ветер - указаны скорость ветра в м/с - средняя за 10 мин, порывы в срок и между сроками (в фигурных скобках) и направление, откуда дует ветер: С - северный, СВ - северо-восточный, В - восточный, ЮВ - юго-восточный, Ю - южный, ЮЗ - юго-западный, З - западный, СЗ - северо-западный.
Видимость - горизонтальная дальность видимости в метрах или километрах. При видимости от 1 до 10 км при отсутствии осадков обычно наблюдается дымка, при ухудшении видимости до 1 км и менее - туман. В сухую погоду видимость может ухудшаться дымом, пылью или мглою.
Явления - указаны атмосферные явления, наблюдавшиеся в срок или в последний час перед сроком; фигурными скобками обозначены явления, наблюдавшиеся между сроками (за 1-3 часа до срока); квадратными скобками обозначены град или гололедные отложения с указанием их диаметра в мм.
Облачность - указаны через наклонную черту общая и нижняя облачность в баллах и высота нижней границы облаков в метрах; квадратными скобками обозначены формы облаков: Ci - перистые, Cs - перисто-слоистые, Cc - перисто-кучевые, Ac - высококучевые, As - высокослоистые, Sc - слоисто-кучевые, Ns - слоисто-дождевые, Cu - кучевые, Cb - кучево-дождевые. Подробнее классификацию облаков см. в Атласе облаков (PDF).
T - Температура воздуха - температура, измеренная на высоте 2 м над землей.
Td - Температура точки росы - температура, при понижении до которой содержащийся в воздухе водяной пар достигнет насыщения.
f - Относительная влажность воздуха - влажноcть воздуха, измеренная на высоте 2 м над землей.
Te - Эффективная температура - температура, которую ощущает одетый по сезону человек в тени. Характеристика душности погоды. При расчете учитывается влияние влажности воздуха и скорости ветра на теплоощущения человека.
Tes - Эффективная температура на солнце - температура, которую ощущает человек, с поправкой на солнечный нагрев. Характеристика знойности погоды. Зависит от высоты солнца над горизонтом, облачности и скорости ветра. Ночью, в пасмурную погоду, а также при ветре 12 м/с и более поправка равна нулю.
P - Атмосферное давление - приведенное к уровню моря атмосферное давление.
Po - Атмосферное давление - измеренное на уровне метеостанции атмосферное давление.
Tmin - Минимальная температура - минимум температуры воздуха на высоте 2 м над землей.
Tmax - Максимальная температура - максимум температуры воздуха на высоте 2 м над землей.
R - Количество осадков - Количество выпавших осадков за период времени, мм. При наведении курсора мыши на число - период времени, за который выпало указанное количество осадков.
R24 - Количество осадков - Количество выпавших осадков за 24 часа, мм.
S - Снежный покров - Высота снежного покрова, см. При наведении курсора мыши на число - состояние снежного покрова и степень покрытия местности в баллах.